Theta_e
329 329 329 329 330 330 330 330 329 329 329 329 329 329 328 327 325 325 325 324 324 325 324 322 322 321 319 317 316 316 315 314 314 313 309 306 301 298 296 295 293 292
328 329 329 329 330 330 330 330 330 330 330 330 330 329 328 327 325 324 325 325 324 323 323 321 320 318 317 315 314 314 313 312 311 307 301 298 296 293 292 292 292 291
328 328 328 328 329 329 329 329 329 330 330 330 330 329 328 327 326 325 324 324 323 322 321 320 318 316 315 313 312 312 311 310 305 299 295 293 293 292 292 291 291 291
327 327 327 328 328 328 329 329 329 329 329 329 329 328 328 327 326 325 323 322 322 321 320 318 317 315 312 309 308 309 307 302 297 294 293 292 291 292 291 291 291 290
326 326 326 326 327 327 328 328 328 329 328 329 329 328 327 327 325 324 323 321 321 320 319 318 316 311 306 304 303 302 298 294 293 292 292 292 291 291 291 290 290 290
324 325 325 326 326 327 327 328 328 329 329 328 328 328 327 326 325 324 323 322 320 319 318 316 312 306 301 299 297 295 293 292 292 291 292 292 291 290 290 290 290 290
323 323 324 325 325 326 327 327 328 328 329 328 327 328 326 325 324 322 321 321 319 318 317 314 309 302 296 294 293 292 292 292 292 291 291 291 290 290 290 289 289 289
321 322 323 324 325 326 326 327 327 327 327 327 326 326 325 324 323 321 320 320 319 316 314 312 307 299 293 292 292 292 292 292 291 291 291 291 290 290 289 289 289 289
319 320 322 323 324 324 325 325 325 325 325 325 325 324 323 323 322 321 319 319 317 314 312 310 305 296 292 292 292 292 292 291 291 290 291 290 290 290 289 289 289 289
318 319 321 322 322 323 323 323 323 322 322 323 323 322 321 320 320 319 318 317 315 311 310 309 302 294 291 291 291 292 292 291 290 290 290 290 290 289 289 289 289 288
318 319 320 321 321 321 321 321 322 321 320 321 321 319 320 320 318 317 316 315 312 309 309 305 297 291 291 291 291 292 291 291 290 290 290 289 289 289 289 288 288 288
317 318 319 320 320 320 321 321 320 320 319 319 319 318 319 318 316 315 314 312 309 307 305 299 293 291 291 291 291 290 290 290 290 289 289 289 289 289 288 288 288 288
317 318 319 319 318 319 320 319 317 317 317 318 318 318 317 316 314 313 311 308 306 303 299 294 291 291 291 290 290 290 290 290 289 289 289 289 288 288 288 288 287 287
317 318 318 318 317 317 316 316 316 316 316 316 316 316 315 315 313 310 307 305 302 297 293 291 291 291 290 290 290 289 290 290 289 289 289 288 288 288 287 287 287 287
316 316 315 315 315 315 314 315 315 314 314 314 313 313 313 312 310 308 305 300 296 292 291 291 291 290 290 290 290 289 289 289 289 289 288 288 288 287 287 287 287 287
314 314 314 313 312 313 312 312 313 312 312 312 312 311 310 308 305 303 300 295 292 290 290 290 290 290 290 289 289 289 289 289 288 288 288 288 288 287 287 287 287 286
312 312 312 312 312 312 312 312 312 312 311 311 310 308 306 304 301 298 294 292 290 290 290 290 289 289 289 289 289 289 288 288 288 288 287 287 287 287 287 287 286 286
311 310 310 310 311 311 311 311 311 310 310 308 307 304 301 298 296 293 291 290 290 290 289 289 289 289 288 288 288 288 288 288 288 288 287 287 287 287 287 286 286 286
311 311 310 310 310 310 310 309 309 309 308 305 303 300 297 294 292 290 290 290 289 289 289 288 288 288 288 288 288 288 288 287 287 287 287 287 287 286 286 286 286 286
309 309 309 309 309 309 308 308 307 306 304 301 298 295 292 291 290 289 289 289 289 289 289 288 288 288 288 288 288 287 287 287 287 287 287 286 286 286 286 286 286 285
307 307 307 307 307 307 306 305 304 302 300 297 294 292 290 289 289 289 289 288 288 288 288 288 288 288 287 287 287 287 287 287 287 287 286 286 286 286 286 286 285 285
306 305 304 305 305 304 304 302 300 298 296 294 291 289 289 289 288 288 288 288 288 288 288 288 287 287 287 287 287 287 286 286 286 286 286 286 286 286 285 285 285 285
305 304 304 304 303 302 301 299 297 295 293 291 289 288 288 288 288 288 288 288 288 288 288 288 287 287 287 287 287 286 286 286 286 286 286 286 285 285 285 285 285 285
305 304 304 303 302 301 299 297 295 293 291 289 288 288 287 287 287 287 287 287 288 287 287 288 287 287 286 286 286 286 286 286 286 286 285 285 285 285 285 285 284 284
304 304 304 303 302 301 299 297 294 291 289 288 288 287 287 287 287 287 287 287 287 287 287 287 287 287 286 286 286 286 285 286 285 285 285 285 285 285 284 284 284 284
303 303 303 302 302 300 298 295 292 290 288 287 287 287 287 286 286 286 286 286 286 286 286 286 287 287 286 286 285 285 285 285 285 285 285 285 285 285 284 284 284 283
Wind_Speed
36 36 35 35 36 35 34 33 32 32 31 29 28 25 24 22 18 18 20 18 18 20 19 16 14 15 16 16 16 17 17 17 16 14 13 14 15 16 16 15 13 11
35 35 35 35 35 34 34 33 32 32 31 29 27 25 24 22 19 20 21 21 22 22 18 15 14 15 17 17 18 18 18 17 16 15 18 19 19 17 16 15 13 10
34 34 35 35 35 34 33 33 31 31 30 28 27 25 24 23 20 21 24 24 24 21 16 14 15 15 17 17 18 18 17 18 19 21 22 20 19 17 15 14 12 9
33 34 34 34 34 33 32 31 31 30 29 28 27 26 26 25 23 24 25 24 22 19 16 16 16 16 17 17 17 18 20 22 24 23 22 20 18 16 14 12 10 9
32 33 33 33 32 32 31 31 31 30 29 29 28 28 28 28 27 27 26 23 21 20 17 17 17 18 18 19 21 23 26 26 24 23 21 20 17 15 13 11 10 9
30 31 31 31 31 31 31 31 31 31 31 31 31 30 30 30 30 30 28 24 23 21 20 20 21 21 22 24 25 27 27 26 24 22 20 19 17 14 12 11 10 9
28 28 29 29 30 30 31 31 31 32 32 32 32 31 31 31 31 29 27 24 23 22 22 22 24 25 26 27 27 27 26 25 24 22 19 17 16 15 13 11 10 10
26 27 27 28 29 30 31 31 32 33 33 33 33 32 31 31 30 28 25 22 23 24 24 25 27 28 29 28 28 27 25 24 22 20 18 17 16 15 14 12 10 9
23 24 25 27 28 30 31 31 32 33 33 33 33 33 33 32 30 28 24 22 25 26 26 27 29 30 30 29 28 26 25 23 21 19 17 16 15 14 13 12 10 9
19 21 23 25 27 29 30 30 30 31 32 31 32 34 34 32 30 27 25 25 27 28 28 30 31 32 31 29 27 25 23 22 20 18 16 15 14 13 12 11 10 9
18 20 22 24 26 27 27 28 27 28 30 31 33 35 33 31 29 27 27 28 29 30 31 33 33 33 31 28 26 24 22 21 19 18 16 15 13 12 11 11 9 8
18 20 21 23 25 25 26 27 28 29 31 32 33 33 32 30 29 28 28 29 30 32 34 35 34 32 30 28 26 24 22 20 19 18 16 15 14 12 11 10 9 8
18 20 20 22 24 26 27 27 28 30 32 32 32 32 31 30 30 29 29 30 32 35 36 36 34 32 30 28 26 24 22 20 19 18 17 15 13 12 11 9 8 6
19 20 21 21 23 25 26 26 27 29 30 32 32 31 30 30 30 31 31 32 35 37 36 35 33 32 30 28 26 24 22 20 19 18 16 15 14 11 10 9 7 6
20 20 22 22 23 24 26 27 29 30 30 31 30 30 29 29 31 33 34 36 37 36 35 34 32 31 29 27 25 23 22 20 19 17 15 14 14 12 10 8 7 5
21 21 21 23 23 25 26 27 28 28 27 27 28 28 29 31 33 35 37 38 38 36 35 33 31 29 27 25 23 22 21 20 18 16 15 14 13 12 11 9 7 5
22 23 23 24 24 25 26 26 26 25 25 26 27 29 31 33 35 37 38 38 38 36 34 32 30 27 26 24 22 20 19 19 18 17 16 14 12 11 10 9 7 6
20 21 23 25 25 26 26 26 25 24 24 27 29 32 34 36 37 38 38 37 36 35 33 31 28 27 25 23 21 20 18 17 17 16 15 14 12 11 10 9 7 6
23 23 23 23 24 24 25 25 24 24 26 30 32 34 36 37 38 38 37 36 35 33 31 29 28 26 25 23 21 20 19 17 16 15 14 14 12 11 10 8 7 6
26 26 26 25 25 25 25 25 25 27 29 32 34 36 38 38 38 37 36 35 34 33 31 29 28 26 24 23 22 20 19 17 16 15 14 13 12 11 10 9 8 6
25 26 26 26 27 26 26 26 28 30 32 34 35 38 38 38 38 37 36 34 33 32 31 29 27 26 24 23 21 20 19 18 16 15 14 13 12 12 10 9 8 6
25 25 25 25 25 26 26 28 30 32 33 35 36 37 37 37 37 36 36 35 33 31 30 29 27 25 24 23 21 20 19 18 16 15 14 13 13 11 10 9 7 6
26 26 25 25 26 27 28 30 31 32 34 36 37 37 37 37 36 35 35 34 33 31 30 29 28 26 24 23 21 20 19 18 17 15 14 14 13 11 10 8 7 6
27 27 27 27 28 29 30 31 32 33 35 36 37 38 37 37 36 35 34 33 32 32 30 29 28 26 25 23 21 20 19 18 17 16 15 14 13 12 10 8 7 5
27 28 28 29 30 31 32 33 34 35 36 36 37 37 37 36 35 35 34 33 32 31 29 28 27 26 25 23 22 21 19 18 17 16 16 15 13 12 10 7 6 6
27 28 29 30 31 32 33 34 35 36 36 36 35 36 36 36 35 35 35 33 31 30 28 27 26 26 26 24 23 22 20 19 18 16 16 16 14 11 9 7 7 7
Wind_Direction
227 227 226 227 228 229 229 228 227 225 226 226 227 228 222 219 223 217 211 214 215 209 203 201 214 231 241 243 236 227 223 222 223 220 203 177 164 159 155 155 155 152
228 227 228 228 228 229 230 230 230 228 228 228 229 228 220 216 216 212 209 208 204 199 199 212 231 241 241 236 227 218 214 213 204 182 165 159 157 157 156 154 153 152
229 228 228 228 229 229 230 230 231 230 230 229 227 223 215 212 211 207 205 203 198 195 206 229 239 239 233 225 215 208 202 190 173 162 159 158 158 159 158 157 155 152
229 229 229 229 230 230 230 229 228 227 227 226 223 218 212 209 207 204 201 199 197 200 217 232 231 224 216 205 195 185 176 169 161 160 161 158 159 163 160 158 157 154
231 230 230 229 229 229 229 228 226 225 224 223 220 216 211 206 203 201 200 201 202 206 216 218 212 205 193 180 173 168 164 162 160 163 165 160 160 164 161 160 161 157
233 231 230 229 229 228 228 226 226 225 222 221 217 213 210 205 201 199 198 201 204 205 207 205 197 188 178 170 167 165 164 163 162 166 170 164 162 163 160 162 163 157
232 231 229 229 228 227 227 226 225 223 221 220 214 210 208 202 198 197 195 198 203 203 202 199 190 181 174 170 168 166 166 165 165 169 171 167 164 163 160 162 165 159
231 230 228 227 226 225 224 223 222 219 218 216 210 206 203 200 199 197 195 199 203 202 199 193 186 179 174 172 171 169 169 169 169 172 172 167 166 164 161 164 165 161
230 228 226 225 223 221 220 219 218 216 213 211 206 201 197 196 198 196 197 204 203 198 195 189 183 178 175 175 175 174 172 170 170 174 175 171 169 167 164 164 164 161
229 226 224 222 219 218 217 215 215 212 208 206 203 198 192 192 194 195 198 202 198 194 191 185 181 178 175 176 178 178 176 173 171 173 175 172 170 167 164 164 165 163
224 222 220 219 216 215 214 212 212 210 205 203 199 193 189 190 192 195 199 198 194 192 187 182 180 177 176 177 179 179 178 175 173 174 173 170 168 167 164 164 166 164
219 215 215 216 213 213 213 212 211 207 202 198 196 191 188 190 193 195 196 195 192 188 183 179 178 177 177 178 178 178 178 177 175 173 172 170 167 166 165 165 165 162
216 215 215 217 214 211 211 210 206 201 195 191 192 192 191 191 193 193 193 192 187 183 180 178 178 178 179 180 179 179 179 177 175 174 171 169 167 166 164 163 161 156
214 216 214 214 213 208 204 201 196 193 191 189 190 192 193 194 194 191 188 186 183 180 178 178 179 179 181 181 180 180 179 178 177 175 171 167 165 164 162 160 159 158
211 212 209 206 205 202 197 194 191 189 188 189 189 191 193 194 193 189 184 180 178 178 178 179 181 181 182 183 182 180 179 178 176 173 171 168 165 163 162 161 163 167
207 206 206 202 199 196 192 189 187 187 187 189 191 193 194 191 188 184 181 179 177 177 179 180 182 182 182 184 184 182 180 177 174 171 169 169 167 164 164 164 166 171
203 200 199 197 193 190 188 187 187 189 192 195 195 194 192 188 184 180 179 179 178 178 179 180 180 181 181 181 182 182 181 178 174 171 168 167 168 166 167 169 170 173
206 202 196 194 192 191 191 192 193 196 200 200 196 191 187 183 181 179 179 179 179 179 179 178 179 180 180 180 179 178 180 180 176 172 169 166 167 169 170 171 173 176
211 210 205 202 201 200 199 198 200 203 202 197 191 186 183 180 179 179 179 179 179 179 178 178 179 180 180 179 179 177 177 178 176 172 170 168 168 171 172 173 176 176
211 211 210 210 209 207 206 205 206 203 197 192 188 183 181 179 179 179 179 179 180 179 178 179 179 180 180 179 179 177 176 177 176 172 170 170 169 170 172 174 177 176
212 209 208 208 206 206 207 206 203 198 192 189 186 183 181 180 180 180 180 179 180 180 179 179 180 180 180 180 179 177 176 176 176 173 172 172 171 172 174 175 175 178
212 209 206 206 205 205 205 203 198 194 191 188 185 182 182 182 181 182 182 180 180 181 180 179 180 180 180 180 180 178 177 176 176 175 174 173 172 173 174 174 177 181
213 211 210 209 208 206 203 199 196 194 191 187 184 182 182 183 183 182 183 182 181 182 182 181 180 180 181 182 181 179 178 177 177 176 175 175 174 174 175 177 180 180
214 213 213 212 209 206 203 199 197 194 191 189 187 185 184 184 184 182 182 184 184 184 186 185 183 181 183 183 181 180 181 180 179 177 176 177 176 175 178 180 180 184
215 214 215 213 210 208 205 202 199 195 192 190 189 188 186 184 184 183 182 183 185 186 187 188 187 184 184 185 182 181 182 182 181 180 179 179 178 178 180 182 188 199
218 216 216 215 212 210 206 203 200 195 192 190 189 189 187 185 185 185 183 182 184 186 187 190 191 188 185 185 184 183 183 183 184 183 183 181 180 180 184 190 198 204